DLH5325 EDDN-EDDF

Flight info

Callsign DLH5325
Flight time 0h 27m
Altitude 24000
Route SUKAD1C SUKAD DCT PIWAW T159 SPESA SPESA5B
Aircraft A20N/M-SDE2E3FGHIRWXY/LB1

Departure

Time 2026-04-17 21:19
Airport Nuremberg Airport (EDDN)

Arrival

Time 2026-04-17 21:46
Airport Frankfurt Main Airport (EDDF)
Time Latitude Longitude Altitude Speed Heading
2026-04-17 21:04 49.49526 11.07660 1036 ft 0 kts 188°
2026-04-17 21:10 49.49534 11.07662 1036 ft 3 kts 192°
2026-04-17 21:10 49.49552 11.07671 1037 ft 3 kts 210°
2026-04-17 21:11 49.49568 11.07689 1038 ft 3 kts 231°
2026-04-17 21:11 49.49576 11.07705 1039 ft 3 kts 244°
2026-04-17 21:11 49.49583 11.07734 1040 ft 3 kts 259°
2026-04-17 21:11 49.49585 11.07758 1040 ft 3 kts 268°
2026-04-17 21:12 49.49585 11.07779 1040 ft 3 kts 275°
2026-04-17 21:12 49.49584 11.07794 1041 ft 1 kts 278°
2026-04-17 21:12 49.49584 11.07795 1041 ft 0 kts 278°
2026-04-17 21:15 49.49591 11.07729 1040 ft 13 kts 281°
2026-04-17 21:16 49.49608 11.07555 1039 ft 17 kts 278°
2026-04-17 21:16 49.49630 11.07335 1038 ft 25 kts 279°
2026-04-17 21:16 49.49663 11.07216 1038 ft 6 kts
2026-04-17 21:16 49.49706 11.07231 1040 ft 12 kts 351°
2026-04-17 21:17 49.49760 11.06985 1036 ft 33 kts 276°
2026-04-17 21:17 49.49795 11.06636 1032 ft 33 kts 278°
2026-04-17 21:17 49.49830 11.06284 1034 ft 35 kts 277°
2026-04-17 21:17 49.49874 11.05997 1037 ft 14 kts 320°
2026-04-17 21:18 49.49971 11.05937 1036 ft 16 kts 350°
2026-04-17 21:18 49.50036 11.06128 1037 ft 44 kts 99°
2026-04-17 21:18 49.49970 11.06805 1036 ft 94 kts 99°
2026-04-17 21:18 49.49834 11.08164 1070 ft 156 kts 98°
2026-04-17 21:19 49.49711 11.09742 1828 ft 150 kts 96°
2026-04-17 21:19 49.49585 11.11373 2507 ft 157 kts 96°
2026-04-17 21:19 49.49454 11.13020 3258 ft 152 kts 98°
2026-04-17 21:19 49.49294 11.14488 3439 ft 131 kts 100°
2026-04-17 21:20 49.49120 11.15945 3639 ft 147 kts 100°
2026-04-17 21:20 49.48920 11.17692 3811 ft 187 kts 99°
2026-04-17 21:20 49.48683 11.19828 4170 ft 214 kts 102°
2026-04-17 21:20 49.48149 11.22113 4514 ft 241 kts 121°
2026-04-17 21:21 49.46940 11.24060 4861 ft 267 kts 149°
2026-04-17 21:21 49.45124 11.24908 5375 ft 283 kts 177°
2026-04-17 21:21 49.43131 11.24809 6152 ft 290 kts 185°
2026-04-17 21:21 49.41103 11.24531 7022 ft 294 kts 186°
2026-04-17 21:22 49.39094 11.24251 7865 ft 297 kts 185°
2026-04-17 21:22 49.37005 11.23977 8747 ft 301 kts 185°
2026-04-17 21:22 49.34907 11.23698 9591 ft 304 kts 187°
2026-04-17 21:22 49.32861 11.22863 10376 ft 308 kts 206°
2026-04-17 21:23 49.31164 11.20873 11092 ft 311 kts 232°
2026-04-17 21:23 49.30156 11.17955 11832 ft 314 kts 253°
2026-04-17 21:23 49.29574 11.14723 12634 ft 316 kts 257°
2026-04-17 21:23 49.29061 11.11433 13435 ft 319 kts 258°
2026-04-17 21:24 49.28539 11.08104 14210 ft 322 kts 258°
2026-04-17 21:24 49.28004 11.04761 14888 ft 326 kts 258°
2026-04-17 21:24 49.27452 11.01372 15547 ft 330 kts 258°
2026-04-17 21:24 49.26903 10.97945 16226 ft 333 kts 259°
2026-04-17 21:25 49.26600 10.94440 16896 ft 335 kts 270°
2026-04-17 21:25 49.26777 10.90881 17561 ft 337 kts 282°
2026-04-17 21:25 49.27476 10.87462 18213 ft 339 kts 295°
2026-04-17 21:25 49.28683 10.84313 18639 ft 349 kts 308°
2026-04-17 21:26 49.30300 10.81463 18880 ft 362 kts 313°
2026-04-17 21:26 49.32084 10.78627 19106 ft 375 kts 314°
2026-04-17 21:26 49.33934 10.75708 19307 ft 388 kts 314°
2026-04-17 21:26 49.35827 10.72700 19240 ft 398 kts 314°
2026-04-17 21:27 49.37788 10.69561 19225 ft 416 kts 313°
2026-04-17 21:27 49.39821 10.66292 19223 ft 432 kts 313°
2026-04-17 21:27 49.41924 10.62905 19214 ft 440 kts 314°
2026-04-17 21:27 49.44179 10.59722 19215 ft 441 kts 322°
2026-04-17 21:28 49.46798 10.57282 19209 ft 442 kts 335°
2026-04-17 21:28 49.49622 10.55422 19191 ft 441 kts 332°
2026-04-17 21:28 49.52100 10.52677 19210 ft 440 kts 317°
2026-04-17 21:28 49.54279 10.49361 19203 ft 440 kts 314°
2026-04-17 21:29 49.56387 10.46036 19199 ft 440 kts 314°
2026-04-17 21:29 49.58565 10.42648 19199 ft 440 kts 315°
2026-04-17 21:29 49.60712 10.39358 19205 ft 440 kts 315°
2026-04-17 21:29 49.62894 10.36041 19201 ft 440 kts 315°
2026-04-17 21:30 49.65079 10.32738 19204 ft 440 kts 315°
2026-04-17 21:30 49.67264 10.29439 19205 ft 440 kts 315°
2026-04-17 21:30 49.69463 10.26120 19202 ft 440 kts 315°
2026-04-17 21:30 49.71648 10.22823 19195 ft 440 kts 315°
2026-04-17 21:31 49.73823 10.19537 19019 ft 433 kts 315°
2026-04-17 21:31 49.75965 10.16299 18145 ft 431 kts 315°
2026-04-17 21:31 49.78115 10.13043 17107 ft 432 kts 315°
2026-04-17 21:31 49.80140 10.09978 18319 ft 329 kts 315°
2026-04-17 21:32 49.81602 10.07775 20750 ft 273 kts 315°
2026-04-17 21:32 49.82975 10.05688 20057 ft 284 kts 315°
2026-04-17 21:32 49.84415 10.03487 19259 ft 299 kts 315°
2026-04-17 21:32 49.85925 10.01183 18541 ft 310 kts 315°
2026-04-17 21:33 49.87495 9.98787 17699 ft 322 kts 315°
2026-04-17 21:33 49.89118 9.96312 16829 ft 333 kts 315°
2026-04-17 21:33 49.90773 9.93712 15922 ft 343 kts 309°
2026-04-17 21:33 49.92042 9.90536 15013 ft 353 kts 293°
2026-04-17 21:34 49.92924 9.86953 14185 ft 356 kts 289°
2026-04-17 21:34 49.93747 9.83322 13122 ft 357 kts 289°
2026-04-17 21:34 49.95391 9.76050 11056 ft 357 kts 289°
2026-04-17 21:35 49.96216 9.72414 10074 ft 357 kts 289°
2026-04-17 21:35 49.97086 9.68805 8998 ft 355 kts 290°
2026-04-17 21:35 49.97960 9.65292 7964 ft 352 kts 290°
2026-04-17 21:35 49.98844 9.61740 6970 ft 356 kts 290°
2026-04-17 21:36 49.99740 9.58114 6013 ft 361 kts 290°
2026-04-17 21:36 50.00633 9.54489 5350 ft 355 kts 290°
2026-04-17 21:36 50.01497 9.50971 5052 ft 340 kts 290°
2026-04-17 21:36 50.02308 9.47665 4994 ft 318 kts 290°
2026-04-17 21:37 50.03076 9.44522 4996 ft 301 kts 290°
2026-04-17 21:37 50.03813 9.41502 5001 ft 298 kts 290°
2026-04-17 21:37 50.04552 9.38467 5002 ft 300 kts 290°
2026-04-17 21:37 50.05318 9.35317 5011 ft 328 kts 290°
2026-04-17 21:38 50.06165 9.31827 5006 ft 358 kts 290°
2026-04-17 21:38 50.07059 9.28142 4997 ft 366 kts 290°
2026-04-17 21:38 50.07946 9.24482 4995 ft 365 kts 290°
2026-04-17 21:38 50.08838 9.20798 4997 ft 364 kts 290°
2026-04-17 21:39 50.09730 9.17103 4997 ft 364 kts 290°
2026-04-17 21:39 50.10618 9.13412 4996 ft 364 kts 290°
2026-04-17 21:39 50.11506 9.09719 4996 ft 364 kts 290°
2026-04-17 21:39 50.12372 9.06112 4979 ft 343 kts 290°
2026-04-17 21:40 50.13181 9.02737 4825 ft 325 kts 290°
2026-04-17 21:40 50.13953 8.99513 4597 ft 310 kts 290°
2026-04-17 21:40 50.14443 8.96340 4359 ft 295 kts 269°
2026-04-17 21:40 50.14102 8.93300 4102 ft 277 kts 252°
2026-04-17 21:41 50.13476 8.90563 3994 ft 260 kts 249°
2026-04-17 21:41 50.12856 8.88039 3974 ft 238 kts 249°
2026-04-17 21:41 50.12284 8.85696 3996 ft 223 kts 249°
2026-04-17 21:41 50.11767 8.83553 3995 ft 201 kts 249°
2026-04-17 21:42 50.11293 8.81576 3988 ft 192 kts 249°
2026-04-17 21:42 50.10829 8.79632 3996 ft 191 kts 249°
2026-04-17 21:42 50.10368 8.77695 3964 ft 190 kts 249°
2026-04-17 21:42 50.09905 8.75748 3483 ft 193 kts 249°
2026-04-17 21:43 50.09440 8.73788 2944 ft 193 kts 250°
2026-04-17 21:43 50.08980 8.71850 2442 ft 192 kts 250°
2026-04-17 21:43 50.08544 8.70018 2348 ft 168 kts 250°
2026-04-17 21:43 50.08168 8.68432 2348 ft 142 kts 250°
2026-04-17 21:44 50.07828 8.66998 2433 ft 148 kts 250°
2026-04-17 21:44 50.07455 8.65406 2355 ft 161 kts 250°
2026-04-17 21:44 50.07054 8.63797 2176 ft 161 kts 249°
2026-04-17 21:44 50.06633 8.62141 1807 ft 162 kts 248°
2026-04-17 21:45 50.06239 8.60494 1591 ft 161 kts 252°
2026-04-17 21:45 50.05917 8.58840 1121 ft 164 kts 251°
2026-04-17 21:45 50.05521 8.57289 845 ft 158 kts 247°
2026-04-17 21:45 50.05123 8.55696 702 ft 157 kts 252°
2026-04-17 21:46 50.04760 8.54107 536 ft 155 kts 251°
2026-04-17 21:46 50.04398 8.52591 367 ft 142 kts 250°
2026-04-17 21:46 50.04082 8.51338 334 ft 94 kts 241°
2026-04-17 21:46 50.03890 8.50895 329 ft 28 kts 219°
2026-04-17 21:47 50.03814 8.50837 332 ft 8 kts 166°
2026-04-17 21:47 50.03794 8.50856 332 ft 0 kts 133°
2026-04-17 21:47 50.03789 8.50962 333 ft 23 kts 69°
2026-04-17 21:48 50.03869 8.51302 334 ft 43 kts 69°
2026-04-17 21:48 50.04024 8.51972 351 ft 94 kts 70°
2026-04-17 21:48 50.04256 8.52994 364 ft 83 kts 66°
2026-04-17 21:48 50.04391 8.53572 367 ft 31 kts 98°
2026-04-17 21:49 50.04416 8.53842 365 ft 24 kts 85°
2026-04-17 21:49 50.04433 8.54103 365 ft 24 kts 82°
2026-04-17 21:49 50.04454 8.54369 365 ft 25 kts 88°
2026-04-17 21:49 50.04429 8.54583 369 ft 20 kts 115°
2026-04-17 21:50 50.04337 8.54748 368 ft 20 kts 146°
2026-04-17 21:50 50.04208 8.54831 367 ft 17 kts 160°
2026-04-17 21:50 50.04123 8.54879 368 ft 0 kts 160°
2026-04-17 21:50 50.04081 8.54902 365 ft 13 kts 159°
2026-04-17 21:51 50.04075 8.54905 365 ft 0 kts 159°
2026-04-17 21:51 50.04055 8.54918 366 ft 12 kts 159°
2026-04-17 21:51 50.04029 8.55086 369 ft 26 kts 69°
2026-04-17 21:52 50.04104 8.55389 371 ft 31 kts 68°
2026-04-17 21:52 50.04177 8.55695 367 ft 29 kts 65°
2026-04-17 21:52 50.04194 8.55755 366 ft 0 kts 67°
2026-04-17 21:53 50.04197 8.55769 365 ft 10 kts 69°
2026-04-17 21:53 50.04211 8.55824 365 ft 0 kts 68°
2026-04-17 21:53 50.04211 8.55825 365 ft 1 kts 69°
2026-04-17 21:54 50.04239 8.55928 366 ft 14 kts 58°
2026-04-17 21:54 50.04272 8.56023 368 ft 9 kts 73°
2026-04-17 21:54 50.04312 8.56061 365 ft 7 kts
2026-04-17 21:54 50.04354 8.56057 365 ft 5 kts 345°
2026-04-17 21:55 50.04385 8.56033 366 ft 5 kts 336°
2026-04-17 21:55 50.04412 8.56034 366 ft 4 kts 17°
2026-04-17 21:55 50.04430 8.56054 368 ft 3 kts 46°
2026-04-17 21:55 50.04450 8.56112 367 ft 12 kts 70°
2026-04-17 21:56 50.04490 8.56286 368 ft 20 kts 68°
2026-04-17 21:56 50.04524 8.56403 367 ft 13 kts 56°
2026-04-17 21:56 50.04586 8.56476 369 ft 9 kts 36°
2026-04-17 21:56 50.04597 8.56544 365 ft 5 kts 89°
2026-04-17 21:57 50.04587 8.56598 365 ft 3 kts 109°
2026-04-17 21:57 50.04582 8.56615 368 ft 2 kts 115°
2026-04-17 21:57 50.04580 8.56621 367 ft 0 kts 115°